ZF1RC George Town KY current weather conditions

sailwx.info

Wind from 034 at 5 knots gusting 8

Air temperature 27.8° C
Dewpoint 23.4° C

Last reported at 2016-Oct-01 12:50 UTC.
Time now 2016-Oct-01 13:50 UTC

Location: N 19°16' W 081°23'.
View on Google Maps.

See reports from other nearby stations

  
Tides and Currents Weather Stations Pressure Air Temp Water Temp Dewpoint Dewpoint Depression Visibility Wind Speed Wind Dir Waves Ship Positions
date/time (UTC)wind fromknots sea level pressurealtimeterstation pressurevisibilityair tempwater tempwave heightnotes
2016-Oct-01 12:50 034 5 gusting 8 27.8
2016-Oct-01 12:40 136 2 gusting 5 27.2
2016-Oct-01 12:30 065 3 gusting 6 27.2
2016-Oct-01 12:20 083 5 gusting 6 26.7
2016-Oct-01 12:10 079 6 gusting 7 26.7
2016-Oct-01 12:00 121 3 gusting 6 26.1
2016-Oct-01 11:50 045 3 gusting 5 26.1
2016-Oct-01 11:40 047 4 gusting 5 26.1
2016-Oct-01 11:30 100 1 gusting 5 26.1
2016-Oct-01 11:20 055 1 gusting 2 25.6
2016-Oct-01 11:10 031 4 gusting 6 25.6
2016-Oct-01 11:00 112 3 gusting 5 25.6
2016-Oct-01 10:50 092 2 gusting 5 25.6
2016-Oct-01 10:40 103 2 gusting 4 25.6
2016-Oct-01 10:30 064 2 gusting 4 25.6
2016-Oct-01 10:20 028 1 gusting 5 25.6
2016-Oct-01 10:10 075 1 gusting 2 25.6
2016-Oct-01 10:00 062 0 gusting 5 25.6
2016-Oct-01 09:50 076 1 gusting 5 25.6
2016-Oct-01 09:40 067 4 gusting 5 25.6
2016-Oct-01 09:30 087 2 gusting 5 25.6
2016-Oct-01 09:20 108 1 gusting 4 25.0
2016-Oct-01 09:10 009 1 gusting 4 25.0
2016-Oct-01 09:00 066 1 gusting 4 25.0
2016-Oct-01 08:50 081 2 gusting 2 25.0
2016-Oct-01 08:40 034 1 gusting 5 25.0
2016-Oct-01 08:30 052 2 gusting 5 25.0
2016-Oct-01 08:20 056 1 gusting 6 25.0
2016-Oct-01 08:10 031 3 gusting 5 25.6
2016-Oct-01 08:00 077 1 gusting 6 25.6
2016-Oct-01 07:50 096 4 gusting 11 26.7
2016-Oct-01 07:40 028 2 gusting 6 27.2
2016-Oct-01 07:30 012 2 gusting 5 27.2
2016-Oct-01 07:20 097 2 gusting 5 27.2
2016-Oct-01 07:10 052 2 gusting 5 27.2
2016-Oct-01 07:00 054 2 gusting 5 27.2
2016-Oct-01 06:50 063 5 gusting 6 27.2
2016-Oct-01 06:40 059 2 gusting 5 26.1
2016-Oct-01 06:30 039 1 gusting 1 25.6
2016-Oct-01 06:20 048 1 gusting 1 25.6
2016-Oct-01 06:10 030 0 gusting 1 26.1
2016-Oct-01 06:00 082 26.1
2016-Oct-01 05:50 052 0 gusting 1 26.1
2016-Oct-01 05:40 057 0 gusting 2 26.1
2016-Oct-01 05:30 123 1 gusting 1 26.1
2016-Oct-01 05:20 084 0 gusting 2 26.1
2016-Oct-01 05:10 060 2 gusting 2 26.7
2016-Oct-01 05:00 074 0 gusting 2 26.7
2016-Oct-01 04:50 129 0 gusting 2 26.7
2016-Oct-01 04:40 073 0 gusting 2 26.7
2016-Oct-01 04:30 072 1 gusting 1 27.2
2016-Oct-01 04:20 075 2 gusting 2 27.2
2016-Oct-01 04:10 080 2 gusting 6 27.8
2016-Oct-01 04:00 059 4 gusting 8 27.8
2016-Oct-01 03:50 025 2 gusting 4 27.8
2016-Oct-01 03:40 073 2 gusting 5 27.8
2016-Oct-01 03:30 013 3 gusting 6 27.8
2016-Oct-01 03:20 084 2 gusting 6 27.8
2016-Oct-01 03:10 042 3 gusting 6 27.8
2016-Oct-01 03:00 054 2 gusting 5 27.8
2016-Oct-01 02:50 041 3 gusting 6 27.8
2016-Oct-01 02:40 063 1 gusting 6 27.8
2016-Oct-01 02:30 091 4 gusting 6 27.8
2016-Oct-01 02:20 098 4 gusting 5 27.8
2016-Oct-01 02:10 020 1 gusting 5 27.8
2016-Oct-01 02:00 081 3 gusting 5 27.8
2016-Oct-01 01:50 052 3 gusting 5 27.8
2016-Oct-01 01:40 086 3 gusting 6 27.8
2016-Oct-01 01:30 167 5 gusting 7 27.8
2016-Oct-01 01:20 353 3 gusting 5 28.3
2016-Oct-01 01:10 037 2 gusting 6 28.3
2016-Oct-01 01:00 101 4 gusting 8 28.3
2016-Oct-01 00:50 082 4 gusting 7 28.3
2016-Oct-01 00:40 098 5 gusting 6 27.8
2016-Oct-01 00:30 120 5 gusting 6 27.8
2016-Oct-01 00:20 081 2 gusting 6 27.8
2016-Oct-01 00:10 057 3 gusting 6 27.8
2016-Oct-01 00:00 103 4 gusting 6 27.8
2016-Sep-30 23:50 077 2 gusting 5 28.3
2016-Sep-30 23:40 126 2 gusting 5 28.3
2016-Sep-30 23:30 076 1 gusting 6 28.3
2016-Sep-30 23:20 063 3 gusting 5 28.3
2016-Sep-30 23:10 058 1 gusting 6 28.3
2016-Sep-30 23:00 069 5 gusting 6 28.9
2016-Sep-30 22:54 057 3 gusting 5 28.9
2016-Sep-30 22:50 059 2 gusting 10 28.9
2016-Sep-30 22:40 047 5 gusting 6 28.9
2016-Sep-30 22:30 034 1 gusting 6 28.9
2016-Sep-30 22:20 023 4 gusting 8 29.4
2016-Sep-30 22:10 059 4 gusting 10 29.4
2016-Sep-30 22:00 023 5 gusting 8 30.0
2016-Sep-30 21:50 064 6 gusting 6 30.0
2016-Sep-30 21:40 060 5 gusting 7 30.6
2016-Sep-30 21:30 080 4 gusting 6 30.6
2016-Sep-30 21:20 043 6 gusting 8 30.6
2016-Sep-30 21:10 095 6 gusting 7 30.6
2016-Sep-30 21:00 034 5 gusting 7 30.6
2016-Sep-30 20:50 077 5 gusting 7 30.6
2016-Sep-30 20:40 112 6 gusting 11 30.6
2016-Sep-30 20:30 076 4 gusting 13 30.6
2016-Sep-30 20:20 059 6 gusting 8 30.6
2016-Sep-30 20:10 015 3 gusting 7 31.1
2016-Sep-30 20:00 043 8 gusting 8 30.6
2016-Sep-30 19:50 050 5 gusting 12 30.6
2016-Sep-30 19:40 063 6 gusting 8 30.6
2016-Sep-30 19:30 053 7 gusting 10 30.6
2016-Sep-30 19:20 104 8 gusting 10 31.1
2016-Sep-30 19:10 026 5 gusting 10 30.6
2016-Sep-30 19:00 056 6 gusting 11 30.6
2016-Sep-30 18:50 073 5 gusting 8 31.1
2016-Sep-30 18:40 064 6 gusting 11 31.1
2016-Sep-30 18:31 032 5 gusting 12 31.1
2016-Sep-30 18:10 032 7 gusting 12 31.1
2016-Sep-30 18:00 049 2 gusting 11 31.7
2016-Sep-30 17:50 043 4 gusting 8 31.1
2016-Sep-30 17:40 084 7 gusting 12 30.6
2016-Sep-30 17:30 097 4 gusting 6 31.1
2016-Sep-30 17:20 108 4 gusting 10 30.6
2016-Sep-30 17:10 066 5 gusting 8 31.1
2016-Sep-30 17:00 038 6 gusting 10 31.1
2016-Sep-30 16:50 036 6 gusting 11 31.1
2016-Sep-30 16:40 066 8 gusting 12 30.6
2016-Sep-30 16:30 106 4 gusting 7 30.6
2016-Sep-30 16:20 054 4 gusting 6 31.1
2016-Sep-30 16:10 092 5 gusting 10 30.6
2016-Sep-30 16:00 040 4 gusting 10 31.1
2016-Sep-30 15:50 075 6 gusting 10 30.6
2016-Sep-30 15:40 061 6 gusting 11 30.6
2016-Sep-30 15:30 074 1 gusting 11 31.1
2016-Sep-30 15:20 036 5 gusting 6 30.6
2016-Sep-30 15:10 068 3 gusting 7 30.6
2016-Sep-30 15:00 067 2 gusting 11 30.6
2016-Sep-30 14:50 047 5 gusting 7 30.0
2016-Sep-30 14:40 104 6 gusting 11 30.0
2016-Sep-30 14:30 013 4 gusting 7 30.0
2016-Sep-30 14:20 063 4 gusting 6 30.0
2016-Sep-30 14:10 020 2 gusting 10 30.0
2016-Sep-30 14:00 024 5 gusting 7 29.4
2016-Sep-30 13:50 096 7 gusting 7 30.0
2016-Sep-30 13:40 095 5 gusting 6 29.4
2016-Sep-30 13:30 062 5 gusting 8 28.9
2016-Sep-30 13:20 013 5 gusting 7 28.9
2016-Sep-30 13:10 007 4 gusting 6 28.3
2016-Sep-30 13:00 101 3 gusting 6 28.3
2016-Sep-30 12:50 018 5 gusting 6 27.8
2016-Sep-30 12:40 060 4 gusting 7 27.2
2016-Sep-30 12:30 024 2 gusting 5 27.2
2016-Sep-30 12:20 058 2 gusting 5 26.7
2016-Sep-30 12:10 079 2 gusting 5 26.1
2016-Sep-30 12:00 103 1 gusting 5 25.6
2016-Sep-30 11:50 068 1 gusting 2 25.0
2016-Sep-30 11:40 055 1 gusting 2 25.0
2016-Sep-30 11:30 096 1 gusting 2 25.0
2016-Sep-30 11:20 069 0 gusting 2 25.0
2016-Sep-30 11:10 029 1 gusting 2 25.6
2016-Sep-30 11:00 150 2 gusting 4 25.6
2016-Sep-30 10:50 096 2 gusting 6 26.1
2016-Sep-30 10:40 092 1 gusting 6 26.1
2016-Sep-30 10:30 109 2 gusting 4 26.7
2016-Sep-30 10:20 033 3 gusting 5 26.7
2016-Sep-30 10:10 019 3 gusting 4 26.7
2016-Sep-30 10:00 067 2 gusting 5 26.7
2016-Sep-30 09:50 088 2 gusting 4 26.7
2016-Sep-30 09:40 080 1 gusting 4 26.7
2016-Sep-30 09:30 055 4 gusting 5 26.7
2016-Sep-30 09:20 032 1 gusting 4 26.7
2016-Sep-30 09:10 080 3 gusting 5 26.7
2016-Sep-30 09:00 093 1 gusting 2 26.7
2016-Sep-30 08:50 061 3 gusting 4 26.7
2016-Sep-30 08:40 119 4 gusting 5 26.7
2016-Sep-30 08:30 040 2 gusting 4 26.7
2016-Sep-30 08:20 056 2 gusting 2 27.2
2016-Sep-30 08:10 028 3 gusting 5 27.2
2016-Sep-30 08:00 042 1 gusting 2 27.2
2016-Sep-30 07:50 049 0 gusting 4 27.2
2016-Sep-30 07:40 311 2 gusting 4 27.2
2016-Sep-30 07:30 027 3 gusting 4 27.2
2016-Sep-30 07:20 029 5 gusting 5 27.2
2016-Sep-30 07:10 019 5 gusting 6 27.2
2016-Sep-30 07:00 035 5 gusting 6 27.2
2016-Sep-30 06:50 064 2 gusting 5 27.2
2016-Sep-30 06:40 037 1 gusting 6 27.2
2016-Sep-30 06:30 041 2 gusting 6 27.2
2016-Sep-30 06:20 037 2 gusting 6 26.7
2016-Sep-30 06:10 034 2 gusting 4 26.7
2016-Sep-30 06:00 109 2 gusting 2 26.7
2016-Sep-30 05:50 026 1 gusting 5 26.7
2016-Sep-30 05:40 350 2 gusting 2 26.7
2016-Sep-30 05:30 065 1 gusting 2 26.7
2016-Sep-30 05:20 051 0 gusting 1 26.7
2016-Sep-30 05:10 049 1 gusting 2 26.7
2016-Sep-30 05:00 082 2 gusting 2 27.2
2016-Sep-30 04:50 107 1 gusting 2 27.2
2016-Sep-30 04:40 112 2 gusting 4 27.2
2016-Sep-30 04:30 035 2 gusting 4 27.2
2016-Sep-30 04:20 081 2 gusting 4 27.2
2016-Sep-30 04:10 042 1 gusting 6 27.2
2016-Sep-30 04:00 030 1 gusting 6 27.2
2016-Sep-30 03:50 016 2 gusting 5 27.2
2016-Sep-30 03:40 070 1 gusting 4 27.2
2016-Sep-30 03:30 058 1 gusting 2 27.2
2016-Sep-30 03:20 033 0 gusting 4 27.2
2016-Sep-30 03:10 088 1 gusting 2 27.2
2016-Sep-30 03:00 092 3 gusting 4 27.2
2016-Sep-30 02:50 016 1 gusting 4 27.2
2016-Sep-30 02:40 050 2 gusting 5 27.2
2016-Sep-30 02:30 027 0 gusting 4 27.8
2016-Sep-30 02:20 074 2 gusting 5 27.8
2016-Sep-30 02:10 039 2 gusting 5 27.8
2016-Sep-30 02:00 081 3 gusting 5 27.8
2016-Sep-30 01:50 067 3 gusting 5 27.8
2016-Sep-30 01:40 017 1 gusting 2 27.8
2016-Sep-30 01:30 100 2 gusting 4 27.8
2016-Sep-30 01:20 084 2 gusting 5 27.8
2016-Sep-30 01:10 076 3 gusting 4 27.8
2016-Sep-30 01:00 069 2 gusting 2 27.8
2016-Sep-30 00:50 052 2 gusting 6 27.8
2016-Sep-30 00:40 048 4 gusting 6 27.8
2016-Sep-30 00:30 050 4 gusting 6 27.8
2016-Sep-30 00:20 110 2 gusting 5 27.8
2016-Sep-30 00:10 112 1 gusting 5 28.3
2016-Sep-30 00:00 067 0 gusting 6 28.3
2016-Sep-29 23:50 056 3 gusting 6 28.3
2016-Sep-29 23:40 063 2 gusting 5 28.3
2016-Sep-29 23:30 064 4 gusting 5 28.3
2016-Sep-29 23:20 081 1 gusting 5 28.3
2016-Sep-29 23:10 062 3 gusting 6 28.9
2016-Sep-29 23:00 064 2 gusting 4 28.9
2016-Sep-29 22:54 089 5 gusting 5 28.9
2016-Sep-29 22:50 046 2 gusting 6 28.9
2016-Sep-29 22:40 116 4 gusting 8 29.4
2016-Sep-29 22:30 354 2 gusting 6 29.4
2016-Sep-29 22:20 057 4 gusting 6 29.4
2016-Sep-29 22:10 036 4 gusting 6 29.4
2016-Sep-29 22:00 072 6 gusting 6 30.0
2016-Sep-29 21:50 067 4 gusting 6 30.0
2016-Sep-29 21:40 033 2 gusting 7 30.0
2016-Sep-29 21:30 089 5 gusting 7 30.6
2016-Sep-29 21:20 084 3 gusting 10 30.6
2016-Sep-29 21:10 044 3 gusting 6 30.6
2016-Sep-29 21:00 079 6 gusting 7 30.6
2016-Sep-29 20:50 014 2 gusting 7 30.6
2016-Sep-29 20:40 039 7 gusting 8 30.6
2016-Sep-29 20:30 339 6 gusting 12 30.6
2016-Sep-29 20:20 068 5 gusting 10 30.6
2016-Sep-29 20:10 042 5 gusting 8 31.1
2016-Sep-29 20:00 074 4 gusting 7 31.1
2016-Sep-29 19:50 027 4 gusting 10 31.1
2016-Sep-29 19:40 098 5 gusting 10 30.6
2016-Sep-29 19:30 057 5 gusting 7 30.6
2016-Sep-29 19:20 012 4 gusting 6 31.1
2016-Sep-29 19:10 086 4 gusting 7 31.1
2016-Sep-29 19:00 088 2 gusting 11 31.1
2016-Sep-29 18:50 050 6 gusting 7 31.1
2016-Sep-29 18:40 034 7 gusting 11 30.6
2016-Sep-29 18:30 054 7 gusting 11 31.1
2016-Sep-29 18:20 049 5 gusting 7 31.1
2016-Sep-29 18:10 014 5 gusting 11 31.1
2016-Sep-29 18:00 042 6 gusting 11 31.1
2016-Sep-29 17:50 023 6 gusting 10 31.1
2016-Sep-29 17:40 048 6 gusting 10 31.1
2016-Sep-29 17:30 095 2 gusting 8 31.1
2016-Sep-29 17:20 040 3 gusting 7 31.1
2016-Sep-29 17:10 037 7 gusting 10 31.1
2016-Sep-29 17:00 048 5 gusting 8 31.1
2016-Sep-29 16:50 061 4 gusting 8 31.1
2016-Sep-29 16:40 032 6 gusting 8 31.1
2016-Sep-29 16:30 016 6 gusting 7 31.1
2016-Sep-29 16:20 055 5 gusting 8 30.6
2016-Sep-29 16:10 114 5 gusting 8 30.6
2016-Sep-29 16:00 010 5 gusting 6 30.6
2016-Sep-29 15:50 074 5 gusting 7 30.6
2016-Sep-29 15:40 108 5 gusting 8 30.6
2016-Sep-29 15:30 141 4 gusting 6 30.6
2016-Sep-29 15:20 011 6 gusting 10 30.6
2016-Sep-29 15:10 001 6 gusting 8 30.6
2016-Sep-29 15:00 029 6 gusting 8 30.6
2016-Sep-29 14:50 044 4 gusting 8 30.6
2016-Sep-29 14:40 060 5 gusting 6 30.0
2016-Sep-29 14:30 034 5 gusting 8 30.0
2016-Sep-29 14:20 106 4 gusting 7 29.4
2016-Sep-29 14:10 037 4 gusting 8 29.4
2016-Sep-29 14:00 076 2 gusting 8 30.0
2016-Sep-29 13:50 049 4 gusting 6 29.4
2016-Sep-29 13:40 090 3 gusting 6 29.4
2016-Sep-29 13:30 065 3 gusting 6 28.9
2016-Sep-29 13:20 064 5 gusting 6 28.3
2016-Sep-29 13:10 057 2 gusting 5 28.3
2016-Sep-29 13:00 084 3 gusting 6 27.8